Terminal Aerodrome Forecast
Issued by NWS

Home | Current Version | Previous Version | Text Only | Print | Product List | Glossary On
Versions: 1 2 3 4 5 6 7 8 9 10 11 12 13 14 15 16 17 18 19
000
FTUS41 KPBZ 020500
TAFDUJ
TAF
KDUJ 020527Z 0206/0306 VRB03KT 2SM BR SKC
      TEMPO 0206/0210 1/2SM FG BKN005
     FM021000 00000KT 1/2SM FG VV001
     FM021400 VRB03KT P6SM SCT025=

USA.gov is the U.S. government's official web portal to all federal, state and local government web resources and services.